星链-3398 (STARLINK-3398 )

导读 | 豆包AI

STARLINK-3398是美国太空探索技术公司SpaceX星链项目的卫星,于2022年1月19日发射升空。作为星链星座的组成部分,它运行在近地轨道,旨在为全球范围提供高速低延迟互联网接入服务,尤其服务偏远地区,并可支持军事、航空等领域通信,助力缩小数字鸿沟,推进全球互联网普及,截至2026年仍在轨稳定运行。

基本信息
目录编号:
51120
目录名称:
STARLINK-3398
国际标识:
2022-005S
轨道中心:
EARTH
卫星名称:
星链-3398
卫星全名:
星链-3398 (STARLINK-3398 )
卫星状态:
在轨 (已飞行1515 天)
发射日期:
2022-01-19 UTC
国别 :
美国 (US)
星等 :
--
轨道信息
数据来源 国际轨道数据 AOE轨道数据
星历时间 2026-03-13T21:32:10+0800
1天前
查看轨道信息
2026-03-14T16:00:00+0800
12小时前
查看轨道信息
半长轴 6917.886km 6917.883km
偏心率 0.0001309 0.0001485
轨道倾角 53.217° 53.216°
近地点辐角 95.011° 80.113°
升交点赤经 271.739° 268.285°
平近点角 265.103° 141.110°
近地点 538.843km 538.718km
远地点 540.655km 540.774km
周期 95.438分钟 95.438分钟
每日圈数 15.088384 15.088393
详细信息
固有亮度:
5
最大亮度:
2.5
卫星平台:
Starlink v1.5
覆盖范围:
全球
运营商:
太空探索技术公司
运营商所在国:
美国
制造商(研发单位):
太空探索技术公司
制造商所在国:
美国
使用方式:
暂无
卫星简介
星链(Starlink)计划是由太空探索技术公司(SpaceX)提出的一个巨型低轨卫星互联网星座项目,计划在2019年至2024年间在太空搭建由约1.2万颗卫星组成的“星链”网络,其中1584颗将部署在地球上空550千米处的近地轨道,并从2020年开始工作。该卫星仍在工作。
2D轨道图
3D轨道图
轨道高度分析图
轨道倾角分析图
轨道综合分析图
查看轨道综合分析图